This is the latest recevied weather packets stored in our database for station/object VK3AFQ-13. If no packets are shown the sender has not sent any weather packets the latest 10 day(s).
| Time | Temp. | Humidity | Pressure | Rain* | Wind** | Luminosity | Snow |
|---|---|---|---|---|---|---|---|
| 1777733164 | 16.67° C | 90% | 1014.6 hPa | - | - | - | - |
| 1777732264 | 16.67° C | 90% | 1013.2 hPa | - | - | - | - |
| 1777731364 | 16.67° C | 90% | 1013.4 hPa | - | - | - | - |
| 1777730462 | 16.67° C | 89% | 1013.4 hPa | - | - | - | - |
| 1777729564 | 16.67° C | 88% | 1013.5 hPa | - | - | - | - |
| 1777728663 | 16.67° C | 88% | 1013.8 hPa | - | - | - | - |
| 1777727764 | 16.67° C | 89% | 1014 hPa | - | - | - | - |
| 1777726862 | 16.67° C | 89% | 1014.2 hPa | - | - | - | - |
| 1777725964 | 16.67° C | 90% | 1014.3 hPa | - | - | - | - |
| 1777725064 | 16.67° C | 90% | 1014.9 hPa | - | - | - | - |
| 1777724164 | 16.67° C | 90% | 1014.9 hPa | - | - | - | - |
| 1777723262 | 16.67° C | 90% | 1015.3 hPa | - | - | - | - |
| 1777722364 | 16.11° C | 91% | 1015.6 hPa | - | - | - | - |
| 1777721464 | 16.11° C | 92% | 1015.8 hPa | - | - | - | - |
| 1777720564 | 16.11° C | 92% | 1015.9 hPa | - | - | - | - |
| 1777719662 | 16.11° C | 92% | 1015.9 hPa | - | - | - | - |
| 1777718764 | 16.11° C | 92% | 1016 hPa | - | - | - | - |
| 1777717863 | 16.11° C | 92% | 1016.2 hPa | - | - | - | - |
| 1777716963 | 16.11° C | 90% | 1016.2 hPa | - | - | - | - |
| 1777716062 | 16.67° C | 86% | 1016.4 hPa | - | - | - | - |
| 1777715164 | 17.78° C | 81% | 1016.2 hPa | - | - | - | - |
| 1777714264 | 18.89° C | 74% | 1015.9 hPa | - | - | - | - |
| 1777713364 | 20° C | 67% | 1015.6 hPa | - | - | - | - |
| 1777712462 | 20° C | 65% | 1015.6 hPa | - | - | - | - |
| 1777711564 | 20.56° C | 63% | 1015.4 hPa | - | - | - | - |
* Rain since midnight (hover to see other rain measurements)
** Current wind speed in m/s (hover to see current wind gust speed)